#timestamp,LO_Frequency,Hit,StdDev 
1633827615.4,286046999.8,N
1633827635.3,286047002.6,N
1633827655.1,286047003.8,Y
1633827675.8,286046998.6,P
1633827695.7,286046999.8,N
1633827715.5,286047002.8,N
1633827735.3,286047001.2,N
1633827755.2,286046998.6,N
1633827775.0,286047001.0,N
1633827775.9,286047001.0,N
1633827795.7,286046999.9,N
1633827815.6,286047002.7,N
1633827835.4,286047002.7,N
1633827855.2,286047002.2,N
1633827875.1,286047002.0,N
1633827876.0,286047002.0,N
1633827895.8,286047002.1,N
1633827915.6,286047002.3,N
1633827935.5,286047002.8,N
1633827955.3,286047002.4,N
1633827975.1,286047000.5,N
1633827995.9,286047002.6,N
1633828015.7,286047001.8,N
1633828035.5,286047002.7,N
1633828055.4,286047002.7,N
1633828075.2,286047002.3,N
1633828095.0,286047002.2,N
1633828095.9,286047002.2,N
1633828115.8,286047000.2,N
1633828135.6,286047002.5,N
1633828155.4,286046999.8,N
1633828175.3,286047002.5,N
1633828195.1,286047002.3,N
1633828215.8,286046999.9,N
1633828235.7,286047001.7,N
1633828255.5,286047001.7,N
1633828275.3,286047001.6,N
1633828295.2,286047001.7,N
1633828315.9,286046999.8,N
1633828335.7,286047002.7,N
1633828355.6,286047002.5,N
1633828375.4,286047000.1,N
1633828395.2,286047002.3,N
1633828415.1,286047002.1,N
1633828416.0,286047002.1,N
1633828435.8,286047001.5,N
1633828455.6,286047001.8,N
1633828475.5,286047002.5,N
1633828495.3,286047000.4,N
1633828515.1,286047000.0,N
1633828535.9,286047000.4,N
1633828555.7,286046999.9,N
1633828575.5,286047000.7,N
1633828595.4,286047000.5,N
1633828615.2,286047001.4,N
1633828635.0,286047002.5,N
1633828635.9,286047002.5,N
1633828655.8,286047000.8,N
1633828675.6,286046998.1,N
1633828695.4,286046998.5,N
1633828715.3,286047000.3,N
1633828735.1,286046998.8,N
1633828736.0,286046998.8,N
1633828755.8,286046996.7,N
1633828775.7,286046999.2,N
1633828795.5,286046996.6,N
1633828815.3,286047001.1,N
1633828835.2,286046998.7,N
1633828855.9,286046999.2,N
1633828875.7,286046999.1,N
1633828895.6,286046996.7,N
1633828915.4,286046998.3,N
1633828935.2,286046998.6,N
1633828955.1,286047000.9,N
1633828956.0,286047000.9,N
1633828975.8,286047000.1,N
1633828995.6,286047000.2,N
1633829015.5,286047000.9,N
1633829035.3,286047000.4,N
1633829055.1,286046999.8,N
1633829075.9,286047000.6,N
1633829095.7,286047000.0,N
1633829115.5,286046999.9,N
1633829135.4,286047000.1,N
1633829155.2,286047002.0,N
1633829175.0,286046998.4,N
1633829175.9,286046998.4,N
1633829195.8,286046999.6,N
1633829215.6,286046997.0,N
1633829235.4,286046998.7,N
1633829255.3,286046998.2,N
1633829275.1,286046999.6,N
1633829276.0,286046999.6,N
1633829295.8,286046997.5,N
1633829315.7,286046995.8,Y
1633829335.5,286046995.4,P
1633829355.3,286046993.7,P
1633829375.2,286046990.2,P
1633829395.9,286046992.7,N
1633829415.7,286046991.0,N
1633829435.6,286046989.2,Y
1633829455.4,286046993.9,P
1633829475.2,286046992.0,P
1633829495.1,286046990.3,P
1633829496.0,286046990.3,Y
1633829515.8,286046996.6,P
1633829535.6,286046996.8,N
1633829555.5,286046994.9,N
1633829575.3,286046995.9,N
1633829595.1,286046996.3,N
1633829615.9,286046994.6,Y
1633829635.7,286046997.7,P
1633829655.5,286046995.6,P
1633829675.4,286046993.7,P
1633829695.2,286046993.0,Y
1633829715.0,286046997.6,P
1633829715.9,286046997.6,N
1633829735.8,286046997.2,P
1633829755.6,286046994.9,Y
1633829775.4,286046997.0,P
1633829795.3,286046995.8,P
1633829815.1,286046993.7,P
1633829835.8,286046996.3,N
1633829855.7,286046994.4,Y
1633829875.5,286046996.3,P
1633829895.3,286046994.4,P
1633829915.2,286046990.2,P
1633829935.0,286046990.7,Y
1633829935.9,286046990.7,P
1633829955.7,286046998.0,N
1633829975.6,286046996.3,N
1633829995.4,286046994.7,N
1633830015.2,286046994.7,N
1633830035.1,286046992.6,Y
1633830036.0,286046992.6,P
1633830055.8,286046996.1,P
1633830075.6,286046995.9,N
1633830095.5,286046994.4,Y
1633830115.3,286046997.4,P
1633830135.2,286046995.9,P
1633830155.9,286046995.1,P
1633830175.7,286046994.0,Y
1633830195.6,286046998.8,P
1633830215.4,286046997.8,N
1633830235.2,286046995.3,P
1633830255.1,286046995.1,Y
1633830256.0,286046995.1,P
1633830275.8,286046996.6,P
1633830295.6,286046997.8,N
1633830315.5,286046995.7,Y
1633830335.3,286046998.0,P
1633830355.1,286046995.9,P
1633830375.9,286046996.4,P
1633830395.7,286046991.8,Y
1633830415.5,286046993.4,P
1633830435.4,286046994.1,P
1633830455.2,286046993.0,P
1633830475.0,286046990.5,Y
1633830475.9,286046990.5,P
1633830495.8,286046996.2,N
1633830515.6,286046993.3,N
1633830535.4,286046993.8,Y
1633830555.3,286047000.3,P
1633830575.1,286046998.4,N
1633830576.0,286046998.4,N
1633830595.8,286046998.7,N
1633830615.7,286046997.3,N
1633830635.5,286046993.6,Y
1633830655.3,286046995.3,P
1633830675.2,286046996.3,P
1633830695.9,286046994.4,P
1633830715.7,286046992.5,Y
1633830735.6,286046995.8,P
1633830755.4,286046993.1,P
1633830775.2,286046989.4,P
1633830795.1,286046987.8,Y
1633830796.0,286046987.8,P
1633830815.8,286046991.9,N
1633830835.6,286046992.8,N
1633830855.5,286046990.2,Y
1633830875.3,286046999.2,P
1633830895.1,286046999.2,N
1633830915.9,286046996.6,N
1633830935.7,286046994.9,N
1633830955.5,286046996.1,N
1633830975.4,286046994.6,N
1633830995.2,286046994.4,N
1633831015.0,286046992.1,Y
1633831015.9,286046992.1,P
1633831035.8,286046997.4,N
1633831055.6,286046997.9,N
1633831075.4,286046995.0,N
1633831095.3,286046994.9,N
1633831115.1,286046995.7,N
1633831135.8,286046995.7,N
1633831155.7,286046995.2,N
1633831175.5,286046993.7,Y
1633831195.3,286046999.5,P
